Frankfort, KY

3:32 AM EST on November 23, 2017 (GMT -0500)
Capital City

Weather History for KFFT - April, 2013

Change the Weather History Date:

Tuesday, April 9, 2013

  Actual Average Record
Temperature  
Mean Temperature 67 °F 53 °F  
Max Temperature 80 °F 65 °F 84 °F (2001)
Min Temperature 53 °F 41 °F 22 °F (2007)
Degree Days  
Heating Degree Days 0 12  
Month to date heating degree days 134 123  
Since 1 July heating degree days 4488 4387  
Cooling Degree Days 2 1  
Month to date cooling degree days 2 1  
Year to date cooling degree days 2 3  
Growing Degree Days 17 (Base 50)    
Moisture  
Dew Point 54 °F    
Average Humidity 66    
Maximum Humidity 89    
Minimum Humidity 42    
Precipitation  
Precipitation 0.00 in 0.12 in 1.76 in (1942)
Month to date precipitation 0.00 1.02  
Year to date precipitation 10.83 11.95  
Sea Level Pressure  
Sea Level Pressure 30.01 in    
Wind  
Wind Speed 8 mph (SSW)    
Max Wind Speed 25 mph    
Max Gust Speed 32 mph    
Visibility 10 miles    
Events      
T = Trace of Precipitation, MM = Missing Value Source: NWS Daily Summary

Daily Weather History Graph

Daily Weather History Graph

Search for Another Location

Airport or City:

Trip Planner

Search our weather history database for the weather conditions in past years. The results will help you decide how hot, cold, wet, or windy it might be!

Date:

Astronomy

Apr. 09, 2013 Rise Set
Actual Time 7:12 AM EDT 8:10 PM EDT
Civil Twilight 6:45 AM EDT 8:37 PM EDT
Nautical Twilight 6:13 AM EDT 9:09 PM EDT
Astronomical Twilight 5:40 AM EDT 9:42 PM EDT
Moon 6:34 AM EDT (4/9) 7:45 PM EDT (4/9)
Length of Visible Light 13h 52m
Length of Day
12h 58m
Waning Crescent, 1% of the Moon is Illuminated
Apr 9
Waning Crescent
Apr 10
New
Apr 18
First Quarter
Apr 25
Full
May 2
Last Quarter

Hourly Weather History & Observations

Time (EDT) Temp. Heat Index Dew Point Humidity Pressure Visibility Wind Dir Wind Speed Gust Speed Precip Events Conditions
12:53 AM 55.0 °F - 50.0 °F 83% 30.00 in 10.0 mi Calm Calm - N/A   Clear
1:53 AM 55.0 °F - 50.0 °F 83% 30.01 in 10.0 mi Calm Calm - N/A   Clear
2:53 AM 55.9 °F - 51.1 °F 84% 30.00 in 10.0 mi Calm Calm - N/A   Scattered Clouds
3:53 AM 54.0 °F - 50.0 °F 86% 30.00 in 10.0 mi Calm Calm - N/A   Clear
4:53 AM 54.0 °F - 50.0 °F 86% 30.00 in 10.0 mi Calm Calm - N/A   Clear
5:53 AM 57.9 °F - 51.1 °F 78% 30.01 in 10.0 mi Calm Calm - N/A   Scattered Clouds
6:53 AM 61.0 °F - 52.0 °F 72% 30.03 in 10.0 mi Calm Calm - N/A   Scattered Clouds
7:53 AM 63.0 °F - 53.1 °F 70% 30.05 in 10.0 mi South 4.6 mph - N/A   Overcast
8:53 AM 64.9 °F - 54.0 °F 68% 30.06 in 10.0 mi South 4.6 mph - N/A   Scattered Clouds
9:53 AM 68.0 °F - 55.9 °F 65% 30.06 in 10.0 mi SSW 11.5 mph 18.4 mph N/A   Overcast
10:53 AM 73.9 °F - 57.0 °F 55% 30.06 in 10.0 mi SW 12.7 mph 18.4 mph N/A   Clear
11:53 AM 75.0 °F - 57.0 °F 53% 30.06 in 10.0 mi SSW 12.7 mph 21.9 mph N/A   Partly Cloudy
12:53 PM 75.0 °F - 55.0 °F 50% 30.06 in 10.0 mi SW 21.9 mph 27.6 mph N/A   Scattered Clouds
1:53 PM 79.0 °F - 54.0 °F 42% 30.03 in 10.0 mi SSW 20.7 mph 29.9 mph N/A   Clear
2:53 PM 77.0 °F - 55.0 °F 47% 29.99 in 10.0 mi SSW 13.8 mph 28.8 mph N/A   Clear
3:53 PM 80.1 °F 80.1 °F 55.0 °F 42% 29.98 in 10.0 mi SSW 20.7 mph 27.6 mph N/A   Clear
4:53 PM 79.0 °F - 55.9 °F 45% 29.96 in 10.0 mi SSW 19.6 mph 32.2 mph N/A   Clear
5:53 PM 78.1 °F - 55.9 °F 46% 29.96 in 10.0 mi SSW 12.7 mph 21.9 mph N/A   Clear
6:53 PM 77.0 °F - 57.0 °F 50% 29.96 in 10.0 mi SSW 16.1 mph 24.2 mph N/A   Clear
7:53 PM 73.9 °F - 57.0 °F 55% 29.96 in 10.0 mi SSW 9.2 mph - N/A   Clear
8:53 PM 71.1 °F - 57.0 °F 61% 29.98 in 10.0 mi SW 6.9 mph - N/A   Clear
9:53 PM 66.9 °F - 57.0 °F 70% 29.99 in 10.0 mi SW 3.5 mph - N/A   Clear
10:53 PM 64.9 °F - 57.0 °F 75% 29.99 in 10.0 mi Calm Calm - N/A   Clear
11:53 PM 61.0 °F - 55.9 °F 83% 29.98 in 10.0 mi Calm Calm - N/A   Clear